Погода в Паниках

Россия / Курская область     51°22′03″N   36°11′16″E
темп.,
°C
ветер,
м/с
пор.,
м/с
влажн.,
%
обл.,
%
осадки,
мм/ч
давл.,
гПа
погр.,
м
16 мая, вс
вс1600:00+13ююз22875 0.0 101311
03:00+12ююв118536 0.0 101310
06:00+14ююв118264 0.0 101311
09:00+19ю336846 0.0 1013367
12:00+22ююв235384 0.0 10131396
15:00+23юв234881 0.0 10131827
18:00+22св23635 0.0 1012171
21:00+17св467254 0.0 101178
17 мая, пн
пн1700:00+15всв41185100 0.3 1010206
03:00+14всв41094100 0.9 1009161
06:00+14в513847 0.0 1008259
09:00+20вюв613671 0.0 1007471
12:00+24вюв816575 0.0 10061410
15:00+24юв811625 0.0 10061335
18:00+22юв71268100 0.0 1005825
21:00+19вюв615755 0.0 1006406
18 мая, вт
вт1800:00+16юв41191100 0.0 1006243
03:00+15юв499788 0.0 1006236
06:00+14ю499212 0.0 1007330
09:00+18ююз467253 0.0 1008531
12:00+21юз1162100 0.0 1007745
15:00+19юз2378100 0.3 1007237
18:00+19ююз2474100 0.5 1006341
21:00+15ююв3488100 0.6 100676
19 мая, ср
ср1900:00+14юв3594100 0.7 1004151
03:00+14ююз399518 3.4 1004389
06:00+13ююв499737 0.0 1004382
09:00+14ююв5992100 0.1 1005688
12:00+17ю677197 0.8 10041364
15:00+17ю6867100 1.8 10041555
18:00+15ю587824 1.1 10041055
21:00+11ююв48955 1.4 1005271
20 мая, чт
чт2000:00+11ю3798100 0.2 1004387
03:00+11юз5997100 0.6 1005665
06:00+10юз61095100 0.4 1006653
09:00+10юз71295100 0.8 1008849
12:00+13зюз61185100 0.3 10101175
15:00+15зюз5973100 0.8 10121241
18:00+15юз377672 0.1 1012665
21:00+13ю2278100 0.1 101218